KE5VBO-1 Weather Reports


time (UTC)temp
C
wind
direction
speed
KPH
gust
KPH
rain 1hr
cm
rain 24hr
cm
rain mn
cm
humidity
%
barometer
mb
20260509080002 19 139 1.6 3.2 0.00 0.41 0.00 1 1007.4
20260509074551 19 141 1.6 4.8 0.00 0.41 0.00 1 1007.8
20260509073020 19 141 0.0 4.8 0.00 0.41 0.00 1 1008.2
20260509071537 18 141 0.0 1.6 0.00 0.41 0.00 1 1008.6
20260509070113 19 141 0.0 3.2 0.00 0.41 0.00 1 1008.7
20260509064537 18 141 0.0 3.2 0.00 0.41 0.00 1 1009.4
20260509063014 18 141 0.0 1.6 0.00 0.41 0.00 1 1009.3
20260509061544 18 141 0.0 0.0 0.00 0.41 0.00 1 1008.7
20260509060028 18 140 0.0 4.8 0.00 0.41 0.00 1 1007.9
20260509054608 18 133 0.0 3.2 0.00 0.41 0.00 1 1007.8
20260509053031 18 133 0.0 0.0 0.00 0.41 0.00 1 1008.5
20260509051606 18 133 0.0 0.0 0.00 0.41 0.00 1 1009.0
20260509050035 18 133 0.0 0.0 0.00 0.41 0.00 1 1009.3
20260509044502 19 133 0.0 0.0 0.00 0.41 0.41 1 1009.3
20260509043034 19 133 0.0 0.0 0.00 0.41 0.41 1 1009.1
20260509041603 20 133 0.0 0.0 0.00 0.41 0.41 1 1008.7
20260509040031 20 133 0.0 0.0 0.00 0.41 0.41 1 1008.7
20260509034603 20 133 0.0 1.6 0.00 0.41 0.41 1 1008.0
20260509033036 21 153 0.0 0.0 0.00 0.41 0.41 1 1008.4
20260509031608 21 153 0.0 1.6 0.00 0.41 0.41 1 1008.1
20260509030030 21 153 0.0 0.0 0.00 0.41 0.41 1 1008.2
20260509024506 21 153 0.0 0.0 0.00 0.41 0.41 1 1009.0
20260509023044 21 152 0.0 1.6 0.00 0.41 0.41 1 1008.5
20260509021614 21 153 0.0 1.6 0.00 0.41 0.41 1 1008.2
20260509020035 21 152 0.0 3.2 0.00 0.41 0.41 1 1007.5
20260509014501 21 153 0.0 3.2 0.00 0.41 0.41 1 1007.0
20260509013035 22 137 0.0 1.6 0.00 0.41 0.41 1 1007.1
20260509011608 22 138 0.0 4.8 0.00 0.41 0.41 1 1007.0
20260509010045 22 119 0.0 0.0 0.00 0.41 0.41 1 1007.1
20260509004612 23 120 0.0 3.2 0.00 0.41 0.41 1 1007.0
20260509003028 23 120 0.0 4.8 0.00 0.41 0.41 1 1006.8
20260509001610 23 42 0.0 4.8 0.00 0.41 0.41 1 1006.6
20260509000027 23 111 1.6 9.7 0.00 0.41 0.41 1 1006.6
20260508234603 24 151 0.0 3.2 0.00 0.41 0.41 3 1006.6
20260508233027 24 152 1.6 6.4 0.00 0.41 0.41 18 1006.6
20260508231558 25 140 0.0 3.2 0.00 0.41 0.41 18 1006.8
20260508230023 25 241 0.0 6.4 0.00 0.41 0.41 17 1006.8
20260508224603 25 124 0.0 6.4 0.00 0.41 0.41 31 1006.8
20260508223036 25 83 0.0 3.2 0.00 0.41 0.41 28 1006.9
20260508221601 25 204 0.0 6.4 0.00 0.41 0.41 38 1006.9
20260508220027 26 95 0.0 4.8 0.00 0.41 0.41 43 1006.8
20260508214607 26 64 0.0 6.4 0.00 0.41 0.41 43 1006.8
20260508213023 26 95 1.6 6.4 0.00 0.41 0.41 46 1006.8
20260508211602 26 12 0.0 4.8 0.00 0.41 0.41 48 1007.2
20260508210024 26 103 0.0 3.2 0.00 0.41 0.41 45 1007.6
20260508204557 26 111 1.6 4.8 0.00 0.41 0.41 46 1008.1
20260508203021 26 84 0.0 4.8 0.00 0.41 0.41 40 1008.4
20260508201555 25 85 0.0 6.4 0.00 0.41 0.41 43 1008.5
20260508200025 25 100 0.0 1.6 0.00 0.41 0.41 42 1008.9
20260508194617 25 102 1.6 4.8 0.00 0.41 0.41 40 1009.0
20260508193030 25 119 0.0 4.8 0.03 0.41 0.41 37 1009.1
20260508191606 25 135 1.6 6.4 0.03 0.41 0.41 34 1009.2
20260508190030 24 177 0.0 3.2 0.03 0.41 0.41 31 1009.3
20260508184614 24 194 0.0 3.2 0.03 0.41 0.41 35 1009.6
20260508183040 24 141 0.0 4.8 0.00 0.38 0.38 27 1009.9
20260508181509 23 118 1.6 4.8 0.00 0.38 0.38 17 1010.2
20260508180049 23 95 0.0 6.4 0.00 0.38 0.38 24 1010.4
20260508174513 22 101 0.0 4.8 0.00 0.38 0.38 2 1010.7
20260508173049 22 102 0.0 6.4 0.00 0.38 0.38 1 1011.1
20260508171518 21 149 0.0 3.2 0.00 0.38 0.38 1 1011.7
20260508164525 19 179 0.0 4.8 0.03 0.38 0.38 1 1012.3
20260508163101 18 179 0.0 6.4 0.03 0.38 0.38 1 1012.5
20260508161529 17 131 0.0 1.6 0.03 0.38 0.38 1 1012.5
20260508160132 17 119 0.0 3.2 0.03 0.38 0.38 1 1012.5
20260508154534 16 119 0.0 1.6 0.00 0.36 0.36 1 1012.7
20260508153111 16 118 0.0 0.0 0.03 0.36 0.36 1 1012.8
20260508151546 16 118 0.0 0.0 0.03 0.36 0.36 1 1012.9
20260508150003 16 118 0.0 0.0 0.05 0.36 0.36 1 1013.0
20260508144546 16 118 0.0 1.6 0.05 0.36 0.36 1 1013.4
20260508143006 16 119 0.0 1.6 0.05 0.33 0.33 1 1013.1
20260508141555 15 359 0.0 1.6 0.08 0.33 0.33 1 1013.3
20260508140019 15 359 0.0 0.0 0.08 0.30 0.30 1 1013.4
20260508134555 15 359 0.0 0.0 0.08 0.30 0.30 1 1013.5
20260508133023 15 120 0.0 0.0 0.05 0.28 0.28 1 1013.5
20260508131557 15 359 0.0 0.0 0.03 0.25 0.25 1 1013.4
20260508130032 14 359 0.0 0.0 0.00 0.23 0.23 1 1013.3
20260508124606 14 119 0.0 1.6 0.03 0.23 0.23 1 1013.4
20260508123039 14 359 0.0 0.0 0.03 0.23 0.23 1 1014.0
20260508121511 14 118 0.0 0.0 0.05 0.23 0.23 1 1014.4
20260508120042 14 118 0.0 0.0 0.05 0.23 0.23 1 1014.0
20260508114508 14 118 0.0 3.2 0.03 0.20 0.20 1 1014.4
20260508113052 14 118 0.0 4.8 0.05 0.20 0.20 1 1013.2
20260508111516 14 129 0.0 1.6 0.08 0.18 0.18 1 1012.7
20260508104510 15 131 0.0 3.2 0.18 0.18 0.18 1 1013.1
20260508103107 15 129 0.0 1.6 0.15 0.15 0.15 1 1013.3
20260508101517 15 131 0.0 1.6 0.10 0.10 0.10 1 1012.6
20260508100049 15 359 0.0 0.0 0.00 0.00 0.00 1 1012.5
20260508094507 15 131 0.0 0.0 0.00 0.00 0.00 1 1012.4
20260508093052 15 131 0.0 0.0 0.00 0.00 0.00 1 1012.6
20260508091517 15 129 0.0 0.0 0.00 0.00 0.00 1 1012.7
20260508090054 15 131 0.0 0.0 0.00 0.00 0.00 1 1012.7
20260508084516 15 129 0.0 0.0 0.00 0.00 0.00 1 1013.0
20260508083130 15 130 0.0 0.0 0.00 0.00 0.00 1 1013.1
20260508081521 15 129 0.0 1.6 0.00 0.00 0.00 1 1013.5